Regional Weather Roundup
Issued by NWS Cleveland, OH

Home | Current Version | Previous Version | Graphics & Text | Print | Product List | Glossary On
Versions: 1 2 3 4 5 6 7 8 9 10 11 12 13 14 15 16 17 18 19 20 21 22 23 24 25 26 27 28 29 30 31 32 33 34 35 36 37 38 39 40 41 42 43 44 45 46 47 48 49 50
000
ASUS41 KCLE 301212
RWRCLE
OHIO REGIONAL WEATHER ROUNDUP
NATIONAL WEATHER SERVICE WILMINGTON, OH
800 AM EDT FRI SEP 30 2016

NOTE: "FAIR" INDICATES FEW OR NO CLOUDS BELOW 12,000 FEET WITH NO
SIGNIFICANT WEATHER AND/OR OBSTRUCTIONS TO VISIBILITY.

OHZ001>008-015>018-024>027-034-035-043-044-301300-
   NORTHWEST OHIO

CITY           SKY/WX    TMP DP  RH WIND       PRES   REMARKS
DEFIANCE       CLOUDY    62  57  83 NE9       30.08F
FINDLAY        CLOUDY    61  57  87 NE8       30.06S
TOLEDO EXPRESS CLOUDY    61  60  97 E9        30.09F
TOLEDO EXEC    MOCLDY    63  60  90 E9        30.10F
LIMA           CLOUDY    60  59  96 E9        30.06R
$$

OHZ009>014-019>023-028>033-038-089-301300-
   NORTHEAST OHIO

CITY           SKY/WX    TMP DP  RH WIND       PRES   REMARKS
CLE-HOPKINS    CLOUDY    61  55  81 SE13      30.15R
CLE-LAKEFRONT  MOCLDY    62  55  77 VRB7      30.12R
CUY CO. ARPT   MOCLDY    61  57  88 SE14G23   30.12F
LORAIN-ELYRIA  NOT AVBL
ASHTABULA      LGT RAIN  57  56  96 E12       30.19F
AKRON-CANTON   LGT RAIN  57  54  89 E17G28    30.11F
WOOSTER        CLOUDY    58  55  90 E10       30.12R
MANSFIELD      CLOUDY    59  58  96 E16       30.09R
YOUNGSTOWN     CLOUDY    56  54  93 E17G24    30.17S
$$

OHZ042-051>053-060>062-070>072-077>081-301300-
  SOUTHWEST OHIO

CITY           SKY/WX    TMP DP  RH WIND       PRES   REMARKS
CINC-COVINGTON CLOUDY    58  57  97 CALM      30.03R
CINC-LUNKEN    LGT RAIN  57  57 100 CALM      30.03S FOG
HAMILTON       CLOUDY    58  57  97 CALM      30.03F FOG
DAYTON         LGT RAIN  58  58 100 N5        30.03S VSB 1
WRIGHT-PAT AFB DRIZZLE   59  59 100 N2        30.01S FOG
DAYTON GENERAL LGT RAIN  58  56  93 S3        30.02S FOG
WILMINGTON     CLOUDY    56  56 100 S3        30.02S FOG
$$

OHZ036-037-039>041-045>050-054>059-063>069-073>076-082>088-301300-
  CENTRAL AND SOUTHEAST OHIO

CITY           SKY/WX    TMP DP  RH WIND       PRES   REMARKS
COLUMBUS       CLOUDY    62  60  93 SE12      30.05R
OSU AIRPORT    CLOUDY    62  60  93 SE8       30.06R
BOLTON FIELD   RAIN      61  61 100 E10       30.06S
RICKENBACK AFB CLOUDY    60  60 100 E9        30.05R
NEWARK         CLOUDY    61  58  90 E8        30.06R
MARION         CLOUDY    62  57  83 E16       30.07R
LANCASTER      TSTM      61  59  93 E17       30.04R FOG
ZANESVILLE     CLOUDY    60  57  89 E9        30.06S
NEW PHILLY     CLOUDY    59  57  93 E8G18     30.10F
$$



USA.gov is the U.S. government's official web portal to all federal, state and local government web resources and services.